Regional Weather Roundup
Issued by NWS

Home | Current Version | Previous Version | Graphics & Text | Print | Product List | Glossary On
Versions: 1 2 3 4 5 6 7 8 9 10 11 12 13 14 15 16 17 18 19 20 21 22 23 24 25 26 27 28 29 30 31 32 33 34 35 36 37 38 39 40 41 42 43 44 45 46 47 48 49 50
000
ASUS43 KBIS 080302
RWRND

NORTH DAKOTA REGIONAL WEATHER ROUNDUP
NATIONAL WEATHER SERVICE BISMARCK ND
900 PM CST WED DEC 07 2016

NOTE: "FAIR" INDICATES FEW OR NO CLOUDS BELOW 12,000 FEET WITH NO
SIGNIFICANT WEATHER AND/OR OBSTRUCTIONS TO VISIBILITY.


NDZ001>003-009>011-017-080400-
NORTHWEST NORTH DAKOTA

CITY           SKY/WX    TMP DP  RH WIND       PRES   REMARKS
WILLISTON      CLOUDY     2  -6  69 NW17      30.56R WCI -18
MINOT          LGT SNOW   6   1  80 W33       30.40R WCI -19
MINOT AFB      DRIZZLE    5   0  81 NW29      30.39R WCI -19
$$

NDZ018>021-031>035-040>046-080400-
SOUTHWEST NORTH DAKOTA

CITY           SKY/WX    TMP DP  RH WIND       PRES   REMARKS
BISMARCK       MIX PCPN   4  -1  80 NW15G24   30.44R WCI -14
DICKINSON      CLOUDY     0  -6  76 W26       30.42R WCI -25
GARRISON         N/A      3  -1  83 NW28G36   30.41R WCI -21
HETTINGER ARPT PTCLDY     0  -6  76 NW18      30.45R WCI -21
$$

NDZ004>008-012>016-024-026-027-054-080400-
NORTHEAST NORTH DAKOTA

CITY           SKY/WX    TMP DP  RH WIND       PRES   REMARKS
GRAND FORKS    CLOUDY    20  16  84 NW23G31   30.17R BLWGSNOWWCI   3
GRND FRKS AFB  LGT SNOW  19  16  86 N20G29    30.19R WCI   4
DEVILS LAKE    LGT SNOW  13  10  88 NW22      30.25R FOG     WCI  -6
$$

NDZ022-023-025-028>030-036>039-047>053-080400-
SOUTHEAST NORTH DAKOTA

CITY           SKY/WX    TMP DP  RH WIND       PRES   REMARKS
FARGO          LGT SNOW  19  14  81 NW22      30.18R WCI   2
JAMESTOWN      LGT SNOW   8   5  87 NW29G36   30.26R FOG     WCI -15
$$




USA.gov is the U.S. government's official web portal to all federal, state and local government web resources and services.